TimeAKST,TemperatureF,Dew PointF,Humidity,Sea Level PressureIn,VisibilityMPH,Wind Direction,Wind SpeedMPH,Gust SpeedMPH,PrecipitationIn,Events,Conditions,WindDirDegrees,DateUTC
12:17 AM,35.6,35.6,100,29.58,7.0,East,8.1,-,0.02,Rain,Rain,100,2012-11-04 08:17:00
12:54 AM,36.0,34.0,93,29.59,9.0,East,6.9,-,0.07,Rain,Rain,100,2012-11-04 08:54:00
1:54 AM,37.0,34.0,89,29.60,9.0,East,9.2,16.1,0.07,Rain,Light Rain,100,2012-11-04 09:54:00
1:54 AM,37.0,34.0,89,29.58,8.0,East,8.1,-,0.08,Rain,Rain,90,2012-11-04 10:54:00
2:54 AM,34.0,33.1,96,29.58,10.0,ESE,8.1,-,0.05,Rain,Light Rain,120,2012-11-04 11:54:00
3:54 AM,37.0,35.1,93,29.55,10.0,East,6.9,-,0.04,Rain,Light Rain,100,2012-11-04 12:54:00
4:54 AM,36.0,35.1,97,29.53,7.0,ESE,6.9,-,0.04,Rain,Light Rain,110,2012-11-04 13:54:00
5:54 AM,35.1,33.1,92,29.51,9.0,Variable,3.5,-,0.07,Rain,Light Rain,0,2012-11-04 14:54:00
6:54 AM,35.1,33.1,92,29.48,9.0,Calm,Calm,-,0.04,Rain,Light Rain,0,2012-11-04 15:54:00
7:14 AM,33.8,33.8,100,29.45,9.0,Calm,Calm,-,0.01,Rain,Light Rain,0,2012-11-04 16:14:00
7:37 AM,35.6,33.8,93,29.45,6.0,Calm,Calm,-,0.02,Rain,Light Rain,0,2012-11-04 16:37:00
7:54 AM,35.1,33.1,92,29.45,10.0,WNW,8.1,-,0.02,,Overcast,290,2012-11-04 16:54:00
8:19 AM,35.6,33.8,93,29.43,10.0,Calm,Calm,-,N/A,,Overcast,0,2012-11-04 17:19:00
8:26 AM,33.8,33.8,100,29.42,10.0,WNW,11.5,-,N/A,,Overcast,290,2012-11-04 17:26:00
8:41 AM,33.8,33.8,100,29.40,10.0,WNW,11.5,-,N/A,,Overcast,300,2012-11-04 17:41:00
8:54 AM,33.1,33.1,100,29.40,10.0,WNW,12.7,-,N/A,,Overcast,300,2012-11-04 17:54:00
9:05 AM,33.8,33.8,100,29.38,10.0,WNW,12.7,-,N/A,,Overcast,300,2012-11-04 18:05:00
9:54 AM,34.0,33.1,96,29.34,10.0,WNW,15.0,-,N/A,,Overcast,300,2012-11-04 18:54:00
10:23 AM,35.6,33.8,93,29.30,10.0,WNW,16.1,-,N/A,,Scattered Clouds,300,2012-11-04 19:23:00
10:54 AM,35.1,33.1,92,29.27,10.0,WNW,17.3,-,N/A,,Mostly Cloudy,300,2012-11-04 19:54:00
11:54 AM,35.1,33.1,92,29.23,10.0,NW,16.1,24.2,N/A,,Overcast,310,2012-11-04 20:54:00
12:54 PM,37.0,33.1,86,29.18,10.0,WNW,17.3,-,0.00,Rain,Light Rain,300,2012-11-04 21:54:00
1:40 PM,35.6,33.8,93,29.16,8.0,NW,11.5,-,0.03,Rain,Light Rain,310,2012-11-04 22:40:00
1:54 PM,36.0,34.0,93,29.16,5.0,NW,12.7,-,0.05,Rain,Rain,310,2012-11-04 22:54:00
2:54 PM,35.1,33.1,92,29.16,7.0,NW,13.8,19.6,0.04,Rain,Light Rain,310,2012-11-04 23:54:00
3:54 PM,35.1,33.1,92,29.15,10.0,NW,13.8,-,0.07,Rain,Light Rain,310,2012-11-05 00:54:00
4:31 PM,35.6,33.8,93,29.15,7.0,NW,13.8,-,0.03,Rain,Rain,310,2012-11-05 01:31:00
4:54 PM,36.0,34.0,93,29.16,10.0,NW,12.7,-,0.04,Rain,Light Rain,310,2012-11-05 01:54:00
5:54 PM,36.0,34.0,93,29.17,10.0,NW,13.8,-,0.01,Rain,Light Rain,310,2012-11-05 02:54:00
6:54 PM,36.0,34.0,93,29.18,10.0,NW,16.1,-,0.01,Rain,Light Rain,320,2012-11-05 03:54:00
7:54 PM,36.0,33.1,89,29.19,10.0,NW,16.1,21.9,0.00,,Overcast,310,2012-11-05 04:54:00
8:54 PM,37.0,34.0,89,29.22,10.0,NW,15.0,-,N/A,,Overcast,310,2012-11-05 05:54:00
9:54 PM,37.0,34.0,89,29.26,10.0,NW,12.7,-,0.00,,Overcast,310,2012-11-05 06:54:00
10:54 PM,36.0,33.1,89,29.30,10.0,WNW,12.7,-,0.00,Rain,Light Rain,300,2012-11-05 07:54:00